Location: *
(43.5322°N, 13.5525°E)
Time: 15:54:05
(UTC+00:00)

Daily predictions for brighter satellites

Satellite Brightness Start Highest point End
(mag) Time Altitude Azimuth Time Altitude Azimuth Time Altitude Azimuth
Cosmos 1844 4.1 16:43:16 10° S 16:48:35 42° ESE 16:53:58 10° NE
Unknown 3.7 16:44:33 10° SW 16:48:42 86° NW 16:52:52 10° NE
Cosmos 2084 3.9 16:45:16 10° SSW 16:49:38 47° ESE 16:53:56 10° NE
Unknown 3.7 16:46:15 10° WSW 16:50:24 83° NW 16:54:33 10° NE
Lacrosse 5 3.7 16:48:29 10° NW 16:51:57 18° N 16:55:25 10° NE
Unknown 3.7 16:49:34 10° WSW 16:53:42 79° NW 16:57:52 10° NE
Unknown 3.8 16:51:17 10° WSW 16:55:24 77° NW 16:59:34 10° NE
USA 116 4.4 16:53:00 10° NE 16:55:31 22° E 16:58:07 10° SSE
Cosmos 1825 Rocket 3.6 16:51:33 10° N 16:55:52 58° E 17:00:11 10° SSE
Cosmos 1953 Rocket 4.0 16:52:51 10° N 16:57:01 40° ENE 17:01:06 10° SSE
Unknown 3.8 16:52:56 10° WSW 16:57:04 75° NNW 17:01:13 10° NE
Unknown 3.8 16:54:37 10° WSW 16:58:45 73° NNW 17:02:54 10° NE
ATLAS 5 CENTAUR R/B 1.7 16:55:11 10° SW 16:59:23 79° NW 17:04:07 10° NE
Cosmos 304 Rocket 4.1 16:56:10 10° SSW 17:00:57 70° WNW 17:05:46 10° NNE
Unknown 3.9 16:57:57 10° WSW 17:02:04 69° NNW 17:06:13 10° NE
Unknown 4.0 16:59:37 10° WSW 17:03:44 65° NNW 17:07:52 10° NE
Unknown 4.1 16:59:57 10° WSW 17:04:03 60° NNW 17:08:09 10° NE
Unknown 4.1 17:01:33 10° WSW 17:05:39 60° NNW 17:09:45 10° NE
COBE Rocket 4.0 17:00:34 10° NNE 17:05:47 77° E 17:10:53 10° S
BREEZE-M DEB (TANK) 3.9 17:03:13 10° WNW 17:07:23 52° NNE 17:17:20 11° E
Unknown 4.0 17:04:33 10° WSW 17:08:39 62° NNW 17:12:47 10° NE
Cosmos 1606 Rocket 3.5 17:05:10 10° S 17:09:33 71° E 17:13:54 10° NNE
Unknown 4.1 17:07:55 10° WSW 17:12:01 59° NNW 17:16:07 10° NE
Unknown 4.1 17:09:40 10° WSW 17:13:45 58° NNW 17:17:51 10° NE
Unknown 4.3 17:12:45 10° NNW 17:14:49 20° NNE 17:16:06 15° ENE
Meteor 2-12 Rocket 4.5 17:08:41 10° N 17:14:53 85° E 17:21:03 10° S
Cosmos 2263 Rocket 4.4 17:10:21 10° WSW 17:14:56 24° NW 17:19:31 10° N
CSL-04 Rocket 3.8 17:09:43 10° SSE 17:15:10 60° ENE 17:20:35 10° N
Unknown 4.2 17:11:16 10° WSW 17:15:21 56° NNW 17:19:27 10° NE
Unknown 4.2 17:13:00 10° WSW 17:17:04 55° NNW 17:21:10 10° NE
Cosmos 2285 Rocket 4.1 17:11:08 10° NNW 17:17:38 87° ENE 17:24:02 10° SSE
Cosmos 1758 Rocket 3.9 17:14:15 10° NNW 17:18:41 72° W 17:23:08 10° S
Unknown 4.4 17:17:07 10° WSW 17:21:05 47° NNW 17:25:00 10° NE
Envisat 3.2 17:16:11 10° S 17:21:15 77° WSW 17:26:22 10° NNW
SL-4 R/B 1.7 17:19:23 10° WNW 17:23:16 86° NNE 17:26:08 16° ESE
CZ-2D R/B 3.9 17:20:11 10° SE 17:23:40 34° ENE 17:27:11 10° N
Unknown 4.3 17:19:40 10° WSW 17:23:43 50° NNW 17:27:33 11° NE
Unknown 4.4 17:21:21 10° WSW 17:25:23 49° NNW 17:29:10 12° NE
Cosmos 1271 Rocket 2.8 17:21:59 10° N 17:25:57 85° W 17:29:57 10° S
Unknown 4.4 17:23:03 10° WSW 17:27:04 48° NNW 17:30:47 12° NE
EO 1 Delta rocket 3.9 17:22:54 10° SSE 17:27:24 52° ENE 17:32:00 10° N
Unknown 4.4 17:24:41 10° WSW 17:28:41 47° NNW 17:32:19 12° NE
Unknown 4.5 17:26:22 10° W 17:30:22 46° NNW 17:33:56 13° NE
Cosmos 1833 Rocket 3.8 17:26:55 10° N 17:31:31 25° NE 17:33:52 19° E
SKYMED 2 3.9 17:28:29 10° N 17:32:49 69° WNW 17:37:08 10° SSW
Cosmos 1356 3.4 17:33:12 10° S 17:36:34 56° E 17:39:57 10° NNE
YAOGAN 1 2.5 17:32:45 10° SSE 17:37:04 90° W 17:41:26 10° NNW
Cosmos 1953 3.6 17:34:11 10° SSW 17:38:03 44° WNW 17:41:59 10° N
Cosmos 1726 1.9 17:36:16 10° S 17:39:53 71° E 17:43:33 10° NNE
Cosmos 1703 3.2 17:37:37 10° N 17:41:31 57° E 17:45:22 10° SSE
ADEOS Rocket 4.3 17:36:45 10° NE 17:42:47 25° E 17:48:32 10° SE
CZ-4C R/B 3.8 17:38:56 10° NW 17:46:06 54° WSW 17:54:05 10° SSE
COSMOS 2406 3.2 17:41:57 10° NNW 17:47:41 64° ENE 17:52:47 13° SE
Cosmos 2082 Rocket 3.3 17:44:25 10° N 17:49:03 25° NE 17:50:12 23° ENE
IRS-1A Rocket 4.3 17:45:06 10° SE 17:50:26 53° ENE 17:55:47 10° N
ASTEX 1 4.1 17:48:48 10° N 17:53:38 55° W 17:58:28 10° SSW
Cosmos 1339 Rocket 4.3 17:50:15 10° S 17:56:15 69° E 18:02:20 10° NNE
Meteor 1-11 4.2 17:52:26 10° N 17:58:13 77° E 18:04:00 10° SSE
Cosmos 1242 Rocket 3.0 17:55:26 10° NNW 17:59:06 64° W 18:02:44 10° S
Shenzhou-11 Module 2.0 17:58:29 10° WSW 18:00:58 64° SW 18:00:58 64° SW
Cosmos 2058 Rocket 3.6 17:57:26 10° SSW 18:01:45 60° W 18:06:04 10° N
Cosmos 1939 Rocket 2.7 17:58:30 10° SSE 18:02:26 88° ENE 18:06:29 10° NNW
Unknown 4.4 18:00:47 10° NW 18:03:09 26° N 18:03:09 26° N
USA 238 DEB 4.1 17:57:44 10° S 18:03:42 36° ESE 18:05:37 30° E
Ariane Rocket 2.9 17:58:43 10° SSE 18:03:48 78° ENE 18:08:55 10° N
USA 238 4.1 17:57:51 10° S 18:03:48 36° ESE 18:05:38 31° E
Abrixas rocket 3.9 18:01:30 10° SSW 18:02:55 20° S 18:02:55 20° S
OAO 3 Rocket 4.4 18:01:57 10° SW 18:06:14 30° S 18:07:26 27° SSE
SPOT 3 Rocket 4.2 18:09:13 35° ENE 18:09:13 35° ENE 18:13:51 10° N
Cosmos 1605 Rocket 3.9 18:03:29 10° N 18:09:44 89° E 18:15:51 10° S
Cosmos 1459 Rocket 4.5 18:05:12 10° N 18:10:52 36° ENE 18:11:19 35° E
Lacrosse 5 rocket 2.2 18:07:37 10° WNW 18:11:16 43° SW 18:13:01 26° S
Cosmos 482 Debris 3.8 18:07:24 10° WNW 18:11:55 79° SW 18:12:02 77° S
Cosmos 1844 Rocket 4.3 18:08:02 10° WSW 18:13:11 35° NW 18:18:20 10° N
USA 234 3.9 18:13:46 32° ESE 18:14:02 32° SE 18:19:46 10° S
Meteor 2-10 4.5 18:09:29 10° SSW 18:14:32 59° WNW 18:19:31 10° N
Cosmos 1727 Rocket 3.9 18:08:37 10° S 18:14:43 66° E 18:20:50 10° NNE
Cosmos 1908 3.9 18:15:42 10° SSW 18:19:32 56° W 18:23:24 10° N
CZ-4 R/B 4.0 18:18:24 10° SW 18:21:37 22° W 18:24:54 10° NW
Cosmos 1777 Rocket 3.9 18:20:16 10° NNW 18:25:31 86° WSW 18:27:47 35° SSE
H-2A R/B 2.7 18:28:31 40° NE 18:28:31 40° NE 18:32:46 10° N
Cosmos 2278 Rocket 2.1 18:23:15 10° SSW 18:28:55 85° ESE 18:34:38 10° NNE
NOSS 3-2 (A) 4.1 18:25:26 10° S 18:28:51 32° SSE 18:28:51 32° SSE
Cosmos 839 Rocket 4.4 18:25:01 10° NW 18:31:12 67° WSW 18:36:18 20° SSE
Cosmos 2173 Rocket 4.1 18:25:35 10° N 18:31:43 51° ENE 18:31:57 51° E
HJ-1C 4.4 18:33:05 46° WNW 18:33:05 46° WNW 18:35:56 10° NNW
Lacrosse 5 2.8 18:31:34 10° NW 18:35:56 35° NNE 18:35:56 35° NNE
CZ-2C R/B 4.3 18:45:55 33° NNE 18:45:55 33° NNE 18:49:37 10° N
ATLAS 5 CENTAUR R/B 4.3 18:42:08 10° WNW 18:44:56 16° NNW 18:47:58 10° N
Cosmos 2100 Rocket 3.8 18:43:03 10° N 18:49:17 75° E 18:49:40 72° ESE
Gbstr 26 Del rocket 4.2 19:06:22 10° WNW 19:12:54 75° NNE 19:12:54 75° NNE
ARGOS 3.9 19:15:47 48° NNW 19:15:47 48° NNW 19:19:39 10° NNW
Cosmos 1833 Rocket 3.2 19:10:18 10° NNW 19:15:36 55° W 19:15:36 55° W
Cosmos 2061 Rocket 4.5 19:15:16 10° N 19:19:54 52° N 19:19:54 52° N
ADEOS Rocket 3.6 19:21:10 10° N 19:28:54 72° WNW 19:36:10 10° SSW
Cosmos 2082 Rocket 3.1 19:27:56 10° NNW 19:32:05 45° WNW 19:32:05 45° WNW
USA 238 DEB 4.5 19:47:53 10° WSW 19:53:10 46° W 19:53:10 46° W
USA 238 4.5 19:47:59 10° WSW 19:53:11 46° W 19:53:11 46° W
H-2A R/B 4.3 20:09:09 21° WNW 20:09:09 21° WNW 20:11:43 10° NW
